Showing default

KAZSCISAT-1, 43787

Orbit data source: Space-Track

KAZSCISAT-1, 43787 is a payload satellite owned by Ghalam LLP (KZ) in SSO that was launched on Mon, 03 Dec 2018 UTC via an FALCON 9 launch vehicle from the Air Force Western Test Range (AFWTR). Payload-class satellites include a variety of spacecraft equipped with specific instruments for various scientific and technological missions. These include communications satellites like Starlink; space stations such as the ISS; scientific satellites like the Hubble; Earth observation satellites from companies like Planet Labs, Umbra, and HawkEye 360; GPS; miniature CubeSats for education and research; and military/defense satellites.

Loading next visibility...
Identifier
43787, 2018-099AF
Orbit
SSO
Last TLE update
6 hours ago
Origin
Manufacturer
Ghalam LLP
Mission
Operational Commercial Science
Bus & Motor
CUBESAT 3U, Unknown motor
Mass
4 kg wet, 4 kg dry
Launch date (UTC)
2018-12-03 (7 years ago)
Launch vehicle
FALCON 9
Launch site
Air Force Western Test Range (AFWTR)
Object type
Payload
Rocket body
Debris
Shape & HBR
Box, 0.3 m
Radar Cross Section
0.035 m², Small (<0.1 m²)

Expand to show TLE details & history

TLE from 6 hours ago
0 KAZSCISAT-1
1 43787U 18099AF  25182.13612121  .00467544  00000-0  17451-2 0  9991
2 43787  97.4396 254.7917 0005996 239.3570 120.7110 15.86814147361133
Epoch: 2025-07-01T03:16Z
TLE epoch observation values (Epoch: 2025-07-01T03:16:00.872Z)
Latitude
-0.00006°
Longitude
-73.64784°
Altitude
316.451 km
Speed
7.717 km/s
True Right ascension
16h 59m 10s
True Declination
0° 00' 00"
Sunlit
Object was in full shadow at epoch
Visualization orbit readout
Latitude
18.46118°
Longitude
-75.85371°
Altitude
316.312 km
Speed
7.718 km/s
Apparent Right ascension
13h 43m 54s
Apparent Declination
-18° 06' 41"
Sunlit
Object is in full shadow
Visualization observer readout
Local Sidereal Time
21:02:10
Azimuth
267.814° W
Elevation
-26.334°
Doppler factor
1
Orbital elements
Apogee altitude
312.109 km
Perigee altitude
304.091 km
Semi-major axis
6,686.237 km
Eccentricity
0.0006
Inclination
97.4396°
RAAN
254.7917°
Arg. of periapsis
239.357°
True anomaly
Unknown
Mean anomaly
120.711°
Eccentric anomaly
Unknown
Mean motion
3.96982 °/min
Orbital period
90.68 mins
BSTAR
0.0017451
Loading maneuver chart data...
Loading SW <> Apogee altitude chart data...
Loading historical data...
Loading historical data...
Loading historical data...
Loading historical data...
Loading historical data...
Loading historical data...
Loading historical data...

KAZSCISAT-1 Visibility forecast

Observer location: undefined°, undefined°

Span
Click to sort rows by Start time (UTC) header in descending order
Start Az.
Max El. time (UTC)
Max El. Az.
Max El.
End time (UTC)
End Az.
4 mins2025-07-01 17:26:53.759Z37.101° NE2025-07-01 17:28:53.759Z120.308° SE29.174°2025-07-01 17:30:53.759Z169.254° S
|